Regional Weather Roundup
Issued by NWS

Home | Current Version | Previous Version | Graphics & Text | Print | Product List | Glossary On
Versions: 1 2 3 4 5 6 7 8 9 10 11 12 13 14 15 16 17 18 19 20 21 22 23 24 25 26 27 28 29 30 31 32 33 34 35 36 37 38 39 40 41 42 43 44 45 46 47 48 49 50
000
ASUS43 KBIS 302102
RWRND

NORTH DAKOTA REGIONAL WEATHER ROUNDUP
NATIONAL WEATHER SERVICE BISMARCK ND
400 PM CDT MON MAY 30 2016

NOTE: "FAIR" INDICATES FEW OR NO CLOUDS BELOW 12,000 FEET WITH NO
SIGNIFICANT WEATHER AND/OR OBSTRUCTIONS TO VISIBILITY.


NDZ001>003-009>011-017-302200-
NORTHWEST NORTH DAKOTA

CITY           SKY/WX    TMP DP  RH WIND       PRES   REMARKS
WILLISTON      LGT RAIN  58  52  80 N9        29.92F
MINOT          CLOUDY    65  52  62 W10       29.87F
MINOT AFB      CLOUDY    63  51  65 NW15      29.85F
$$

NDZ018>021-031>035-040>046-302200-
SOUTHWEST NORTH DAKOTA

CITY           SKY/WX    TMP DP  RH WIND       PRES   REMARKS
BISMARCK       CLOUDY    73  57  57 N16       29.78F
DICKINSON      LGT RAIN  55  53  93 N12       29.85F
GARRISON         N/A     57  54  89 NW15      29.88F
HETTINGER ARPT TSTM      54  53  97 N5        29.88S FOG
$$

NDZ004>008-012>016-024-026-027-054-302200-
NORTHEAST NORTH DAKOTA

CITY           SKY/WX    TMP DP  RH WIND       PRES   REMARKS
GRAND FORKS    CLOUDY    76  55  48 NE7       29.84F THUNDER
GRND FRKS AFB  LGT RAIN  71  56  59 W16       29.87R
DEVILS LAKE    HVY RAIN  61  51  70 NE8       29.89F
$$

NDZ022-023-025-028>030-036>039-047>053-302200-
SOUTHEAST NORTH DAKOTA

CITY           SKY/WX    TMP DP  RH WIND       PRES   REMARKS
FARGO          MOSUNNY   85  45  24 S14G33    29.83F
JAMESTOWN      MOSUNNY   79  51  37 SE16G23   29.79F
$$





USA.gov is the U.S. government's official web portal to all federal, state and local government web resources and services.